Location: Oshawa
(43.9000°N, 78.8670°W)
Time: 22:27:08
(UTC-04:00)

Daily predictions for brighter satellites

Satellite Brightness Start Highest point End
(mag) Time Altitude Azimuth Time Altitude Azimuth Time Altitude Azimuth
DEBRIS 3.7 21:15:19 10° SW 21:18:32 60° SE 21:28:39 10° ENE
Meteor 1-19 Rocket 4.3 21:15:10 10° S 21:20:57 74° E 21:26:40 10° NNE
ARGOS 4.3 21:17:55 10° ESE 21:22:26 28° ENE 21:26:59 10° N
Cosmos 923 Rocket 4.1 21:17:23 10° SSW 21:22:44 88° WNW 21:28:04 10° NNE
Lacrosse 5 rocket 4.3 21:21:01 10° NW 21:23:51 16° N 21:26:43 10° NE
Tiangong 2 1.5 21:21:14 10° WSW 21:24:17 44° SSE 21:27:19 10° E
Cosmos 1441 Rocket 3.5 21:21:39 10° S 21:25:13 45° E 21:28:49 10° NNE
ERS-1 Rocket 3.4 21:22:23 10° SE 21:27:11 49° ENE 21:32:02 10° N
Cosmos 1455 Rocket 4.5 21:23:18 10° NNW 21:27:23 39° W 21:31:24 10° SSW
CENTAUR R/B 3.6 21:19:50 10° NW 21:27:37 62° WSW 21:35:52 10° SSE
Resurs 01 Rocket 3.6 21:24:51 10° SSW 21:28:41 28° W 21:32:31 10° NW
OE (NEXTSAT) 4.4 21:27:52 10° WNW 21:31:28 87° NNE 21:35:02 10° ESE
NOSS 2-2 (D) 4.3 21:27:53 10° SW 21:31:52 59° NW 21:36:34 10° NNE
Terra 4.0 21:31:39 10° ENE 21:32:50 11° ENE 21:34:02 10° NE
Meteor 1-29 2.8 21:30:36 10° NNE 21:34:00 84° ESE 21:37:21 10° SSW
SPOT 5 3.8 21:30:26 10° SE 21:34:04 27° ENE 21:37:46 10° N
USA 40 PKM 4.5 21:32:45 10° SW 21:36:08 85° NW 21:41:05 10° NE
Nadezhda 1 Rocket 4.1 21:31:22 10° S 21:37:40 70° E 21:44:02 10° NNE
H-2A R/B 4.4 21:39:49 10° E 21:41:24 12° ENE 21:42:58 10° NE
Meteor 1-15 Rocket 4.4 21:36:13 10° N 21:41:45 57° ENE 21:47:12 10° SSE
MOS 1-B Rocket 4.3 21:36:12 10° SE 21:41:50 54° ENE 21:48:14 10° N
COSMOS 2406 3.6 21:37:23 10° SSW 21:43:06 71° WNW 21:48:49 10° NNE
Cosmos 2278 4.4 21:39:06 10° NNW 21:44:29 41° ENE 21:49:20 12° SE
Cosmos 2082 Rocket 3.5 21:41:54 10° SSE 21:45:58 21° E 21:50:02 10° NE
Cosmos 1743 4.2 21:45:13 10° NNW 21:48:49 37° W 21:52:26 10° SSW
Cosmos 2154 Rocket 4.1 21:44:53 10° N 21:51:14 69° E 21:57:33 10° SSE
CZ-4B DEB 4.1 21:49:53 10° SSW 21:52:39 34° W 21:55:26 10° NNW
CRYOSAT 2 4.3 21:49:48 10° S 21:54:39 85° E 21:59:31 10° N
Cosmos 2112 Rocket 4.3 21:50:06 10° SSW 21:55:18 70° WNW 22:00:30 10° NNE
Cosmos 1238 Rocket 4.2 21:50:18 10° S 21:57:05 90° NNE 22:03:32 10° N
Aureole 3 Rocket 4.2 21:53:02 10° SSW 21:59:01 57° W 22:03:20 10° N
ISS -3.6 21:55:58 10° WSW 21:59:16 73° NNW 22:02:34 10° NE
Cosmos 1624 Rocket 4.0 21:55:49 10° NNW 22:01:07 79° ENE 22:05:37 15° SSE
ASTEX 1 3.5 21:56:14 10° S 22:01:08 77° W 22:06:03 10° N
OAO 2 Rocket 4.3 21:58:07 10° WSW 22:02:19 28° S 22:05:08 17° SE
H-2A R/B 2.8 21:59:49 15° SE 22:03:24 37° ENE 22:08:03 10° N
Cosmos 2369 4.0 21:58:43 10° NNW 22:04:23 57° ENE 22:08:44 17° SE
Cosmos 1697 Rocket 3.8 22:00:07 10° N 22:05:05 31° NE 22:09:12 14° ESE
TELKOM 3 3.8 22:03:10 10° NW 22:05:25 49° NNE 22:07:27 17° E
Cosmos 2228 3.8 22:02:56 10° N 22:06:55 36° ENE 22:09:27 19° SE
SL-27 R/B 3.8 22:04:32 10° SW 22:08:01 43° WNW 22:11:32 10° N
Cosmos 967 Rocket 4.5 22:02:29 10° SSW 22:08:39 62° ESE 22:14:50 10° NE
Cosmos 921 Rocket 3.3 22:05:09 10° N 22:09:36 58° ENE 22:12:33 20° SE
YAOGAN 6 3.8 22:07:10 10° SSW 22:10:27 37° W 22:13:45 10° NNW
Cosmos 1666 4.5 22:08:08 10° NNW 22:11:24 29° W 22:14:39 10° SSW
Cosmos 1656 4.2 22:07:36 10° NNW 22:12:51 47° ENE 22:16:38 18° SE
Meteor 1-4 Rocket 4.0 22:10:11 10° NNE 22:13:05 22° ENE 22:14:27 18° ESE
SL-08 RB Rocket 3.8 22:12:25 19° SSE 22:15:31 60° ENE 22:19:57 10° N
Okean 1-7 Rocket 4.3 22:13:56 10° SSW 22:18:18 54° WNW 22:22:44 10° N
Cosmos 1892 Rocket 3.5 22:15:23 13° S 22:19:13 67° E 22:23:37 10° NNE
Intercosmos 24 4.3 22:16:04 10° NNW 22:19:52 53° W 22:22:55 13° S
Cosmos 2056 Rocket 3.5 22:15:15 10° NNW 22:20:26 77° WSW 22:24:17 18° SSE
Cosmos 1437 Rocket 3.1 22:18:31 10° NNW 22:22:19 63° W 22:25:17 16° S
Cosmos 1833 Rocket 3.2 22:19:02 16° SSE 22:23:04 38° ESE 22:28:13 10° NE
Cosmos 2341 Rocket 4.0 22:17:41 10° N 22:24:04 88° E 22:29:27 15° S
MetOp-A 4.5 22:23:25 13° S 22:28:09 65° WSW 22:33:30 10° NNW
Cosmos 1606 Rocket 3.8 22:25:41 10° NNW 22:29:58 64° W 22:33:15 17° S
Cosmos 839 Rocket 4.4 22:27:41 10° NW 22:34:15 80° WSW 22:39:48 21° SSE
Cosmos 2218 Rocket 4.2 22:29:28 10° N 22:35:32 57° ENE 22:39:18 24° SSE
Cosmos 1066 Rocket 4.3 22:34:16 21° SSE 22:37:53 56° E 22:43:25 10° NNE
Cosmos 1726 Rocket 3.9 22:35:26 10° NNW 22:39:41 60° W 22:42:37 19° S
USA 245 3.2 22:42:20 32° SW 22:42:57 39° WSW 22:45:10 10° NNW
Cosmos 1515 4.2 22:40:58 14° SSW 22:44:09 56° W 22:47:55 10° N
COSMOS 2487 2.4 22:43:44 20° SSW 22:46:06 84° WNW 22:49:42 10° NNE
Iridium 43 3.9 22:48:00 10° N 22:50:04 55° WNW 22:50:04 55° WNW
CZ-3A R/B 1.7 22:48:39 10° WSW 22:50:15 24° WSW 22:50:15 24° WSW
CARTOSAT-1 3.9 22:50:14 33° SE 22:51:52 53° ENE 22:56:05 10° N
Cosmos 1452 Rocket 3.5 22:47:07 10° NNW 22:52:26 85° ENE 22:55:04 31° SSE
Cosmos 1980 Rocket 2.9 22:48:05 10° NNW 22:53:30 43° ENE 22:56:23 25° ESE
Cosmos 2058 Rocket 3.5 22:49:58 10° NNW 22:54:18 58° W 22:56:51 24° SSW
Landsat 7 3.8 22:52:27 31° SSE 22:54:45 83° ENE 22:59:32 10° NNW
SPOT 1/Viking Rocket 3.7 22:51:40 24° S 22:54:50 68° WSW 23:00:00 10° NNW
Cosmos 2181 Rocket 4.3 22:49:30 10° SSW 22:55:52 71° W 23:02:09 10° N
Cosmos 1766 3.8 22:55:03 10° N 22:58:48 43° ENE 22:59:35 38° ESE
Tiangong 2 0.9 22:57:43 10° W 23:00:53 74° S 23:00:58 73° SSE
Cosmos 1544 4.3 22:58:03 10° NNE 23:01:10 26° ENE 23:01:29 26° E
ARGOS 4.1 22:58:31 16° SSW 23:02:27 43° W 23:07:38 10° NNW
Cosmos 2322 Rocket 4.0 22:59:12 10° N 23:03:37 22° NE 23:07:11 13° E
Lacrosse 5 rocket 3.8 23:01:01 10° NNW 23:04:36 21° NNE 23:08:11 10° ENE
USA 267 4.2 23:00:34 10° ENE 23:05:41 25° ESE 23:05:41 25° ESE
Terra 1.7 23:07:57 38° SSE 23:09:47 82° ENE 23:14:34 10° NNW
SPOT 5 4.2 23:09:29 16° SSW 23:12:06 28° W 23:15:54 10° NW
H-2A R/B 2.1 23:15:12 43° SSE 23:16:41 87° WSW 23:21:16 10° NNW
Cosmos 1812 Rocket 3.5 23:12:51 10° N 23:17:21 75° E 23:18:32 48° SSE
Cosmos 864 Rocket 4.5 23:11:08 10° N 23:17:28 83° W 23:20:41 31° S
IGS 5A 3.4 23:18:14 49° S 23:19:19 82° WSW 23:23:31 10° NNW
SeaSat 1 4.4 23:17:12 12° E 23:20:12 20° NE 23:23:44 10° N
Cosmos 468 4.4 23:17:25 27° SSW 23:20:22 88° ESE 23:25:42 10° NNE
PSLV R/B 3.5 23:24:25 55° N 23:24:25 55° N 23:26:42 10° NNW
Cosmos 1758 4.1 23:20:19 10° N 23:24:02 36° ENE 23:24:21 36° E
Meteor 2-21 Rocket 4.4 23:19:47 10° N 23:25:51 82° W 23:28:37 34° S
Lacrosse 5 4.1 23:30:33 12° E 23:30:33 12° E 23:31:04 10° E
Cosmos 1626 Rocket 3.8 23:26:20 34° SSW 23:28:02 63° W 23:32:20 10° N
Spot 4 3.9 23:26:55 45° SE 23:28:14 67° ENE 23:33:01 10° N
ATLAS CENTAUR R/B 3.2 23:26:38 10° N 23:29:22 19° NE 23:30:40 16° ENE
Cosmos 2082 Rocket 2.6 23:23:56 10° SW 23:29:32 61° WNW 23:35:09 10° NNE
CZ-2C R/B 4.3 23:25:56 10° NE 23:29:50 19° E 23:30:19 19° E
Cosmos 1805 3.4 23:26:48 10° N 23:30:40 55° E 23:30:53 54° E
SL-19 R/B 4.0 23:25:31 10° NNE 23:30:54 89° WNW 23:33:15 34° SSW
Meteor 1-22 Rocket 4.3 23:27:14 10° NNW 23:32:29 63° W 23:34:39 35° SSW
USA 229 DEB 3.8 23:28:31 10° NW 23:35:42 86° NE 23:39:05 35° SE
USA 229 3.8 23:28:37 10° NW 23:35:48 85° NE 23:39:12 35° SE
ISS -1.3 23:33:25 10° WNW 23:36:10 24° N 23:38:54 10° NE
Cosmos 1953 Rocket 4.2 23:40:02 40° E 23:40:10 40° E 23:44:21 10° NNE
Cosmos 2366 rocket 4.5 23:34:28 10° NNW 23:40:25 52° W 23:43:33 27° SSW
Cosmos 1825 Rocket 3.6 23:41:26 56° ESE 23:41:41 57° E 23:45:56 10° NNE
H-2A R/B 3.5 23:40:27 18° SW 23:42:55 27° W 23:47:11 10° NW
ALOS 2 4.2 23:46:15 22° E 23:47:05 24° ENE 23:50:36 10° NNE
Meteor 1-4 Rocket 4.4 23:45:21 10° NW 23:48:08 21° W 23:48:46 20° WSW
Cosmos 158 Rocket 4.0 23:46:06 37° SSW 23:48:17 82° WNW 23:53:42 10° NNE
Cosmos 1697 Rocket 3.4 23:43:54 10° NW 23:49:11 43° WSW 23:50:57 33° SSW
Cosmos 2360 4.1 23:44:25 10° NNW 23:50:10 84° WSW 23:51:48 49° SSE
CZ-4C R/B 3.1 23:52:04 77° NNW 23:52:04 77° NNW 23:55:28 10° NNW
